MMS 3

Last updated on Jan. 17, 2020, 4:31 a.m. UTC

1 40484U 15011C   20016.77789352 -.00001669  00000-0  00000+0 0  9997
2 40484  23.5704 120.3448 8803740  17.5178 225.0162  0.28544429 10753
UTC
Height (km)
Latitude
Longitude
Inclination
Orbital Period
UTC large
Height (km)
Speed (km/s)
/
Latitude / Longitude
Inclination (degrees)
Orbital Period (minutes)
Azimuth
Elevation
Range (km)
Doppler Factor
iOS Compass Heading
iOS Angle

Next 30 passes for location: Hong Kong

Rise time Rise Azimuth (degrees) Set time Set Azimuth (degrees) Duration Max altitude (degrees)

No matching passes for this satellites